"Pseudo-MPEC" for MZ26307

Created 2026 Aug 9 20:35:05 UT using Find_Orb

Click here for an explanation of pseudo-MPECs

 
 Astrometry: 
     MZ26307*KB2026 08 08.76239 21 39 42.39 -17 37 57.6    ~896o 17.8 GXNEOCPN86
     MZ26307 KB2026 08 08.76602 21 39 42.63 -17 38 05.1    ~896o 18.0 GXNEOCPN86
     MZ26307 KB2026 08 08.76966 21 39 42.95 -17 38 13.6    ~896o 17.6 GXNEOCPN86
     MZ26307 KB2026 08 08.77330 21 39 43.20 -17 38 20.0    ~896o 17.8 GXNEOCPN86

Station data:
(N86) Xingming Observatory-KATS, Nanshan  (N43.473806 E87.178520)  China.
   Observers Observers X. Gao, Q.-Z. Ye. Measurer Q.-Z. Ye. 0.28-m f/2.2
   Schmidt.

Orbital elements:  MZ26307
   Perihelion 2026 Oct 7.874683 +/- 45.6 TT = 20:59:32.6 (JD 2461321.374683)
Epoch 2026 Aug  9.0 TT = JDT 2461261.5   Earth MOID: 0.1060   Ma: 0.0841
M 338.826439988 +/- 20              (J2000 ecliptic)             AutoNEOCP
n   0.353631267 +/- 0.283           Peri.  245.263328 +/- 60
a   1.980473081 +/- 1.06            Node   132.226852 +/- 43
e   0.47908823 +/- 0.256            Incl.    7.615004 +/- 5.8
P   2.78711                H 20.45  G  0.15   U 11.9  SR
q 1.031651726 +/- 0.291    Q 2.929294437 +/- 101
From 4 observations 2026 Aug. 8 (15.7 min); mean residual 0".36
Residuals in arcseconds: 
260808 N86  .14+  .13+    260808 N86  .29+  .74-    
260808 N86  .35-  .18+    260808 N86  .07-  .43+    

Ephemerides (geocentric):
Date (UTC) HH   RA             Dec           delta  r     elong  mag " sig PA
---- --------  ------------   ------------  ------ ------ -----  --- --------
2026 08 09 21  21 41 22.929   -18 16 57.86  .21624 1.2289 173.8 18.0  22d  79
2026 08 09 22  21 41 26.810   -18 18 29.34  .21600 1.2287 173.8 18.0  22d  79
2026 08 09 23  21 41 30.699   -18 20 01.01  .21576 1.2285 173.8 18.0  22d  79
2026 08 10 00  21 41 34.596   -18 21 32.86  .21553 1.2282 173.8 18.0  23d  79
2026 08 10 01  21 41 38.501   -18 23 04.90  .21529 1.2280 173.8 18.0  25d  83
2026 08 10 02  21 41 42.414   -18 24 37.14  .21506 1.2277 173.8 18.0  26d  86
2026 08 10 03  21 41 46.335   -18 26 09.55  .21482 1.2275 173.8 18.0  27d  86
2026 08 10 04  21 41 50.265   -18 27 42.16  .21459 1.2273 173.8 18.0  27d  87
2026 08 10 05  21 41 54.203   -18 29 14.96  .21435 1.2270 173.8 18.0  27d  87
2026 08 10 06  21 41 58.149   -18 30 47.94  .21412 1.2268 173.8 18.0  28d  86
2026 08 10 07  21 42 02.103   -18 32 21.12  .21388 1.2265 173.8 18.0  30d  88
2026 08 10 08  21 42 06.066   -18 33 54.48  .21365 1.2263 173.8 18.0  31d  90
2026 08 10 09  21 42 10.037   -18 35 28.04  .21341 1.2261 173.8 18.0  31d  90
2026 08 10 10  21 42 14.016   -18 37 01.78  .21318 1.2258 173.8 18.0  32d  91
2026 08 10 11  21 42 18.004   -18 38 35.72  .21295 1.2256 173.8 18.0  32d  91
2026 08 10 12  21 42 22.001   -18 40 09.84  .21271 1.2253 173.8 18.0  32d  91
2026 08 10 13  21 42 26.005   -18 41 44.16  .21248 1.2251 173.8 18.0  32d  91
2026 08 10 14  21 42 30.019   -18 43 18.66  .21225 1.2249 173.8 17.9  32d  91
2026 08 10 15  21 42 34.041   -18 44 53.36  .21202 1.2246 173.8 17.9  32d  91
2026 08 10 16  21 42 38.071   -18 46 28.25  .21178 1.2244 173.8 17.9  32d  91
2026 08 10 17  21 42 42.110   -18 48 03.33  .21155 1.2242 173.8 17.9  32d  91
2026 08 10 18  21 42 46.158   -18 49 38.60  .21132 1.2239 173.8 17.9  32d  91
2026 08 10 19  21 42 50.214   -18 51 14.07  .21109 1.2237 173.8 17.9  32d  91
2026 08 10 20  21 42 54.279   -18 52 49.73  .21086 1.2234 173.8 17.9  32d  91
2026 08 10 21  21 42 58.353   -18 54 25.58  .21063 1.2232 173.8 17.9  32d  91
2026 08 10 22  21 43 02.436   -18 56 01.62  .21039 1.2230 173.8 17.9  32d  91
2026 08 10 23  21 43 06.527   -18 57 37.86  .21016 1.2227 173.8 17.9  32d  91
2026 08 11 00  21 43 10.628   -18 59 14.29  .20993 1.2225 173.8 17.9  32d  91
2026 08 11 01  21 43 14.737   -19 00 50.92  .20970 1.2222 173.8 17.9  32d  91
2026 08 11 02  21 43 18.855   -19 02 27.74  .20947 1.2220 173.8 17.9  32d  91
2026 08 11 03  21 43 22.982   -19 04 04.75  .20924 1.2218 173.8 17.9  32d  91
2026 08 11 04  21 43 27.119   -19 05 41.96  .20901 1.2215 173.8 17.9  32d  91
2026 08 11 05  21 43 31.264   -19 07 19.37  .20878 1.2213 173.7 17.9  32d  91
2026 08 11 06  21 43 35.418   -19 08 56.96  .20855 1.2211 173.7 17.9  32d  91
2026 08 11 07  21 43 39.581   -19 10 34.76  .20832 1.2208 173.7 17.9  32d  91
2026 08 11 08  21 43 43.754   -19 12 12.75  .20810 1.2206 173.7 17.9  32d  91
2026 08 11 09  21 43 47.936   -19 13 50.93  .20787 1.2203 173.7 17.9  32d  91
2026 08 11 10  21 43 52.127   -19 15 29.32  .20764 1.2201 173.7 17.9  32d  91
2026 08 11 11  21 43 56.327   -19 17 07.90  .20741 1.2199 173.7 17.9  32d  91
2026 08 11 12  21 44 00.536   -19 18 46.67  .20718 1.2196 173.7 17.9  32d  91
2026 08 11 13  21 44 04.755   -19 20 25.64  .20695 1.2194 173.7 17.9  32d  91
2026 08 11 14  21 44 08.983   -19 22 04.81  .20673 1.2192 173.7 17.9  32d  91
2026 08 11 15  21 44 13.221   -19 23 44.18  .20650 1.2189 173.7 17.9  32d  91
2026 08 11 16  21 44 17.468   -19 25 23.75  .20627 1.2187 173.7 17.9  33d  90
2026 08 11 17  21 44 21.724   -19 27 03.51  .20605 1.2185 173.6 17.9  33d  90
2026 08 11 18  21 44 25.990   -19 28 43.47  .20582 1.2182 173.6 17.9  34d  90
2026 08 11 19  21 44 30.266   -19 30 23.63  .20559 1.2180 173.6 17.9  34d  91
2026 08 11 20  21 44 34.551   -19 32 03.99  .20537 1.2177 173.6 17.9  35d  91